{"data":{"norad_id":68946,"intl_designator":"2026-098AD","name":"KUIPER-00452","alt_names":[],"object_type":"PAYLOAD","status":"ACTIVE","operator":null,"country":"US","launch_date":"2026-04-30","launch_site_code":"FRGUI","launch_vehicle":null,"mission":null,"orbit_class":"UNKNOWN","rcs_meters":null,"size_class":null,"mass_kg":null,"dimensions":null,"purposes":[],"wikipedia_slug":null,"has_3d_model":false,"image_url":null,"decayed_at":null,"tle_current":{"epoch":"2026-05-24T12:30:09.832032Z","epoch_age_seconds":116402,"freshness":"FRESH","line1":"1 68946U 26098AD  26144.52094713  .00004062  00000+0  12665-3 0  9990","line2":"2 68946  51.8739 181.6443 0003948  52.1903 307.9440 15.35546695  3716","mean_motion":15.35546695,"eccentricity":0.0003948,"inclination_deg":51.8739,"raan_deg":181.6443,"arg_perigee_deg":52.1903,"mean_anomaly_deg":307.944,"bstar":0.00012665,"rev_number":371,"period_min":93.777675709171,"perigee_km":456.59772314238,"apogee_km":461.99656114102,"semimajor_km":6837.4341421417,"source":"CELESTRAK","updated_at":"2026-05-25T13:38:08.798410Z"}}}